Tiempo atmosférico en la estación meteorológica de Cedrillas, Teruel (1380 m.)



Fecha
DESCASC
Temp. máxima en grados centígrados (hora)
DESCASC
Temp. mínima en grados centígrados (hora)
DESCASC
Temp. media en grados centígrados
DESCASC
Racha de viento máxima en m/sg (hora)
DESCASC
Velocidad máxima media en intervalos de 10 minutos(hora)
DESCASC
Precipitaciones diarias en mm
DESCASC
Precipitaciones de 00:00 a 06:00 en mm
DESCASC
Precipitaciones de 06:00 a 12:00 en mm
DESCASC
Precipitaciones de 12:00 a 18:00 en mm
DESCASC
Precipitaciones de 18:00 a 24:00 en mm
DESCASC
13-01-2021 2.1 (16:30) -6.4 (06:00) -2.2 6.94 (12:30) 5.28 (12:30) 0 0 0 0 0
12-01-2021 0.5 (15:40) -15 (04:10) -7.3 6.67 (18:10) 3.89 (18:00) 0 0 0 0 0
11-01-2021 -4.1 (14:40) -12.9 (22:50) -8.5 5.28 (16:50) 3.61 (10:10) 0 0 0 0 0
10-01-2021 -1.3 (14:00) -5.2 (23:40) -3.2 6.39 (17:00) 4.17 (16:50) 0 0 0 0 0
09-01-2021 0.7 (14:20) -6 (-00:0) -2.7 6.67 (04:10) 4.72 (04:00) 10.6 4.6 3.2 1.8 1
08-01-2021 -1.3 (12:30) -5.4 (-00:0) -3.4 4.17 (00:20) 3.06 (00:20) 12.6 0 1.6 3.4 7.6
07-01-2021 -2.4 (13:10) -6.2 (-00:0) -4.3 5.28 (14:00) 3.61 (15:30) 3.6 0 0 1.6 2
06-01-2021 0.6 (15:50) -11.9 (-00:0) -5.6 4.17 (12:10) 2.5 (04:30) 0 0 0 0 0
05-01-2021 -0.9 (14:20) -9 (-00:0) -4.9 10.56 (10:20) 6.94 (08:30) 0 0 0 0 0
04-01-2021 -0.3 (14:30) -5 (-00:0) -2.7 10.83 (15:10) 7.5 (15:20) 0 0 0 0 0
03-01-2021 0.1 (16:10) -7.7 (-00:0) -3.8 15.56 (14:20) 10.28 (13:00) 0 0 0 0 0
02-01-2021 -3.1 (16:40) -6 (-00:0) -4.5 16.11 (10:10) 10.28 (10:00) 0.2 0.2 0 0 0
01-01-2021 -0.5 (00:40) -3.7 (-00:0) -2.1 15.83 (15:10) 10.83 (15:10) 3 1.6 1.4 0 0
31-12-2020 5.2 (15:20) -3.2 (-00:0) 1 11.67 (20:00) 8.61 (20:10) 0 0 0 0 0
30-12-2020 1.6 (15:00) -4.4 (-00:0) -1.4 15.56 (07:20) 10.28 (07:30) 0 0 0 0 0
29-12-2020 1.1 (12:50) -2.2 (-00:0) -0.6 16.94 (02:00) 13.06 (02:50) 0 0 0 0 0
28-12-2020 2.7 (04:00) -1.3 (-00:0) 0.7 24.17 (07:00) 16.39 (07:00) 1.2 0 1.2 0 0
27-12-2020 9.2 (13:40) -5.8 (-00:0) 1.7 18.61 (22:30) 14.72 (23:00) 0 0 0 0 0
26-12-2020 1.9 (15:40) -5.4 (-00:0) -1.8 17.22 (02:30) 12.22 (03:00) 0 0 0 0 0
25-12-2020 -0.3 (04:40) -4.3 (-00:0) -2.3 22.5 (16:00) 13.61 (13:30) 0 0 0 0 0
24-12-2020 8 (13:00) -0.9 (-00:0) 3.6 8.06 (13:40) 5.83 (13:50) 0 0 0 0 0
23-12-2020 14.2 (16:10) 1.1 (23:50) 7.6 6.94 (15:00) 4.44 (15:30) 0 0 0 0 0
21-12-2020 9.2 (16:10) -1.6 (-00:0) 3.8 11.94 (11:40) 5.83 (12:30) 0 0 0 0 0
20-12-2020 7 (15:00) -0.7 (-00:0) 3.2 9.17 (09:30) 6.11 (09:00) 0.2 0.2 0 0 0
19-12-2020 8.1 (13:00) 1 (00:00) 4.6 7.5 (22:20) 5.28 (22:10) 4.6 0 0 1.6 3
18-12-2020 10.2 (15:10) -2.7 (-00:0) 3.7 7.22 (15:50) 4.72 (15:50) 0 0 0 0 0

Gráficas

Temp. máximas Temp. mínimas Temp. medias Precipitaciones Rachas de viento máximas Velocidades máximas media en intervalos de 10 minutos

Datos horarios

Fecha y hora oficial Temperatura (ºC) Velocidad del viento (km/h) Dirección del viento Racha (km/h) Dirección de racha Precipitación (mm) Presión (hPa) Tendencia (hPa) Humedad (%)
2021-01-16 23:00:00 -2.7 9 Nordeste 13 Nordeste 0 -- -- 57
2021-01-16 22:00:00 -1.6 7 Nordeste 16 Norte 0 -- -- 54
2021-01-16 21:00:00 -1.6 8 Nordeste 13 Norte 0 -- -- 55
2021-01-16 20:00:00 -1.1 5 Nordeste 19 Norte 0 -- -- 54
2021-01-16 19:00:00 0.9 15 Noroeste 24 Noroeste 0 -- -- 48
2021-01-16 18:00:00 1 10 Norte 17 Norte 0 -- -- 54
2021-01-16 17:00:00 2.7 6 Norte 19 Norte 0 -- -- 46
2021-01-16 16:00:00 2.8 13 Norte 21 Nordeste 0 -- -- 47
2021-01-16 15:00:00 3.5 7 Norte 18 Oeste 0 -- -- 50
2021-01-16 14:00:00 2.9 10 Norte 17 Norte 0 -- -- 47
2021-01-16 13:00:00 2.3 8 Norte 13 Norte 0 -- -- 54
2021-01-16 12:00:00 1 6 Norte 10 Nordeste 0 -- -- 61
2021-01-16 11:00:00 -1.5 4 Nordeste 15 Norte 0 -- -- 73
2021-01-16 10:00:00 -4 6 Nordeste 18 Este 0 -- -- 79
2021-01-16 09:00:00 -6.3 7 Nordeste 14 Norte 0 -- -- 85
2021-01-16 08:00:00 -5.8 6 Norte 12 Norte 0 -- -- 90
2021-01-16 07:00:00 -5.7 6 Norte 14 Noroeste 0 -- -- 90
2021-01-16 06:00:00 -5.7 6 Norte 16 Norte 0 -- -- 91
2021-01-16 05:00:00 -4 12 Norte 37 Noroeste 0 -- -- 86
2021-01-16 04:00:00 -3.5 21 Norte 32 Norte 0 -- -- 91
2021-01-16 03:00:00 -2.9 24 Norte 42 Norte 0 -- -- 89
2021-01-16 02:00:00 -2.9 21 Norte 45 Noroeste 0 -- -- 88
2021-01-16 01:00:00 -2.3 26 Norte 35 Norte 0 -- -- 85
2021-01-16 00:00:00 -2.1 22 Norte 43 Norte 0 -- -- 86
2021-01-15 23:00:00 -1.4 19 Norte 35 Nordeste 0 -- -- 79
2021-01-15 22:00:00 -2.2 21 Norte 33 Norte 0 -- -- 86
2021-01-15 21:00:00 -2 13 Norte 36 Norte 0 -- -- 86
2021-01-15 20:00:00 -1.2 24 Norte 46 Noroeste 0 -- -- 84
2021-01-15 19:00:00 -1.4 23 Noroeste 42 Noroeste 0 -- -- 85
2021-01-15 18:00:00 -0.2 23 Norte 39 Norte 0 -- -- 78
2021-01-15 17:00:00 0.4 28 Nordeste 42 Norte 0 -- -- 81
2021-01-15 16:00:00 0.5 20 Norte 39 Norte 0 -- -- 80
2021-01-15 15:00:00 1 20 Norte 46 Nordeste 0 -- -- 78
2021-01-15 14:00:00 1.1 28 Noroeste 44 Noroeste 0 -- -- 74
2021-01-15 13:00:00 1 23 Norte 47 Noroeste 0 -- -- 78
2021-01-15 12:00:00 0.7 32 Noroeste 58 Noroeste 0 -- -- 80
2021-01-15 11:00:00 0 35 Noroeste 58 Noroeste 0 -- -- 84
2021-01-15 10:00:00 -1.4 30 Norte 51 Norte 0 -- -- 90
2021-01-15 09:00:00 -1.3 30 Noroeste 44 Noroeste 0 -- -- 92
2021-01-15 08:00:00 -1.2 28 Noroeste 48 Noroeste 0 -- -- 91
2021-01-15 07:00:00 -1.9 22 Noroeste 42 Norte 0 -- -- 89
2021-01-15 06:00:00 -2.1 23 Norte 45 Norte 0 -- -- 90
2021-01-15 05:00:00 -0.7 33 Noroeste 48 Noroeste 0 -- -- 89
2021-01-15 04:00:00 -1 25 Noroeste 37 Noroeste 0 -- -- 91
2021-01-15 03:00:00 0.4 27 Norte 39 Norte 0 -- -- 91
2021-01-15 02:00:00 1 26 Norte 44 Norte 0 -- -- 90
2021-01-15 01:00:00 1.4 31 Norte 56 Norte 0 -- -- 91
2021-01-15 00:00:00 1.4 28 Norte 44 Norte 0 -- -- 96
2021-01-14 23:00:00 1.5 26 Norte 49 Noroeste 0 -- -- 98
2021-01-14 22:00:00 1.8 32 Noroeste 47 Noroeste 0 -- -- 96
2021-01-14 21:00:00 1.1 26 Norte 42 Norte 0 -- -- 94
2021-01-14 20:00:00 0.2 25 Norte 42 Noroeste 0 -- -- 85
2021-01-14 19:00:00 0.8 23 Norte 38 Norte 0 -- -- 59
2021-01-14 18:00:00 -0.4 12 Noroeste 19 Norte 0 -- -- 54
2021-01-14 17:00:00 1.8 8 Norte 19 Norte 0 -- -- 52
2021-01-14 16:00:00 3 13 Norte 23 Norte 0 -- -- 48
2021-01-14 15:00:00 2.7 11 Norte 19 Norte 0 -- -- 53
2021-01-14 14:00:00 3.8 9 Norte 17 Noroeste 0 -- -- 44
2021-01-14 13:00:00 3.2 3 Norte 11 Noroeste 0 -- -- 42
2021-01-14 12:00:00 0.1 6 Norte 10 Norte 0 -- -- 51
2021-01-14 11:00:00 -1.8 5 Norte 14 Norte 0 -- -- 56
2021-01-14 10:00:00 -2.7 8 Norte 16 Noroeste 0 -- -- 60
2021-01-14 09:00:00 -6.3 9 Nordeste 12 Nordeste 0 -- -- 71
2021-01-14 08:00:00 -6.1 5 Nordeste 13 Nordeste 0 -- -- 70
2021-01-14 07:00:00 -5.2 7 Nordeste 12 Nordeste 0 -- -- 67
2021-01-14 06:00:00 -5.3 5 Nordeste 9 Norte 0 -- -- 74
2021-01-14 05:00:00 -5.8 6 Norte 11 Norte 0 -- -- 77
2021-01-14 04:00:00 -4.1 5 Norte 12 Nordeste 0 -- -- 73
2021-01-14 03:00:00 -4.1 10 Norte 14 Norte 0 -- -- 75
2021-01-14 02:00:00 -4.4 6 Norte 10 Norte 0 -- -- 80
2021-01-14 01:00:00 -4.9 8 Norte 12 Norte 0 -- -- 80
2021-01-14 00:00:00 -5.2 6 Noroeste 10 Norte 0 -- -- 84
2021-01-13 23:00:00 -4.8 5 Norte 12 Nordeste 0 -- -- 81
2021-01-13 22:00:00 -4.7 7 Norte 12 Norte 0 -- -- 81
2021-01-13 21:00:00 -4.3 9 Norte 13 Norte 0 -- -- 79
2021-01-13 20:00:00 -3.2 10 Norte 13 Norte 0 -- -- 80
2021-01-13 19:00:00 -2.4 9 Norte 14 Norte 0 -- -- 81
2021-01-13 18:00:00 -1.6 7 Norte 13 Norte 0 -- -- 82
2021-01-13 17:00:00 0.8 6 Norte 14 Norte 0 -- -- 74
2021-01-13 16:00:00 2 6 Norte 14 Norte 0 -- -- 74
2021-01-13 15:00:00 1.5 9 Norte 19 Norte 0 -- -- 78
2021-01-13 14:00:00 1 14 Norte 21 Norte 0 -- -- 82
2021-01-13 13:00:00 -0.5 18 Nordeste 25 Nordeste 0 -- -- 89
2021-01-13 12:00:00 -1.5 15 Norte 24 Nordeste 0 -- -- 92
2021-01-13 11:00:00 -2.8 13 Norte 17 Norte 0 -- -- 83
2021-01-13 10:00:00 -4.2 9 Nordeste 16 Nordeste 0 -- -- 85
2021-01-13 09:00:00 -5 9 Nordeste 14 Norte 0 -- -- 89
2021-01-13 08:00:00 -6 8 Norte 14 Nordeste 0 -- -- 93
2021-01-13 07:00:00 -3.6 13 Nordeste 23 Nordeste 0 -- -- 81
2021-01-13 06:00:00 -6.4 11 Nordeste 21 Nordeste 0 -- -- 93
2021-01-13 05:00:00 -6.1 10 Norte 18 Norte 0 -- -- 90
2021-01-13 04:00:00 -5.2 9 Nordeste 24 Nordeste 0 -- -- 88
2021-01-13 03:00:00 -3.8 9 Nordeste 22 Nordeste 0 -- -- 74
2021-01-13 02:00:00 -4.2 14 Este 20 Nordeste 0 -- -- 72
2021-01-13 01:00:00 -4.6 10 Nordeste 15 Nordeste 0 -- -- 70
2021-01-13 00:00:00 -4.6 8 Nordeste 21 Nordeste 0 -- -- 71
2021-01-12 23:00:00 -5.7 7 Nordeste 17 Nordeste 0 -- -- 74
2021-01-12 22:00:00 -4.5 10 Nordeste 17 Norte 0 -- -- 67
2021-01-12 21:00:00 -4.7 10 Nordeste 15 Nordeste 0 -- -- 66
2021-01-12 20:00:00 -5.2 9 Nordeste 16 Norte 0 -- -- 65
2021-01-12 19:00:00 -3.8 12 Norte 24 Norte 0 -- -- 62
2021-01-12 18:00:00 -3 14 Norte 20 Norte 0 -- -- 65
2021-01-12 17:00:00 -1.4 8 Norte 16 Norte 0 -- -- 62
2021-01-12 16:00:00 0.5 10 Norte 19 Norte 0 -- -- 57
2021-01-12 15:00:00 0.3 10 Nordeste 16 Norte 0 -- -- 57
2021-01-12 14:00:00 -0.1 6 Nordeste 16 Norte 0 -- -- 59
2021-01-12 13:00:00 -2 8 Norte 14 Norte 0 -- -- 64
2021-01-12 12:00:00 -4.6 10 Norte 15 Norte 0 -- -- 70
2021-01-12 11:00:00 -6 9 Norte 13 Nordeste 0 -- -- 72
2021-01-12 10:00:00 -9.6 8 Norte 10 Nordeste 0 -- -- 74
2021-01-12 09:00:00 -11.8 4 Nordeste 10 Nordeste 0 -- -- 81
2021-01-12 08:00:00 -14 8 Nordeste 10 Nordeste 0 -- -- 85
2021-01-12 07:00:00 -13.2 8 Nordeste 12 Nordeste 0 -- -- 84
2021-01-12 06:00:00 -13.3 7 Nordeste 10 Nordeste 0 -- -- 85
2021-01-12 05:00:00 -14.4 6 Nordeste 9 Norte 0 -- -- 92
2021-01-12 04:00:00 -14.7 7 Este 9 Este 0 -- -- 91
2021-01-12 03:00:00 -13 3 Nordeste 9 Este 0 -- -- 90
2021-01-12 02:00:00 -13.7 6 Nordeste 8 Norte 0 -- -- 85
2021-01-12 01:00:00 -13 5 Nordeste 12 Norte 0 -- -- 88
2021-01-12 00:00:00 -12.6 6 Norte 15 Norte 0 -- -- 86
2021-01-11 23:00:00 -12.9 8 Norte 14 Norte 0 -- -- 87
2021-01-11 22:00:00 -12.4 10 Norte 15 Norte 0 -- -- 86
2021-01-11 21:00:00 -11.6 11 Norte 14 Norte 0 -- -- 91
2021-01-11 20:00:00 -10.7 8 Norte 14 Norte 0 -- -- 95
2021-01-11 19:00:00 -10.3 10 Norte 16 Norte 0 -- -- 92
2021-01-11 18:00:00 -8.7 10 Norte 17 Noroeste 0 -- -- 87
2021-01-11 17:00:00 -5.9 12 Norte 19 Norte 0 -- -- 82
2021-01-11 16:00:00 -4.5 10 Norte 17 Noroeste 0 -- -- 78
2021-01-11 15:00:00 -4.1 11 Norte 17 Norte 0 -- -- 77
2021-01-11 14:00:00 -4.4 12 Noroeste 16 Noroeste 0 -- -- 77
2021-01-11 13:00:00 -5 11 Norte 16 Norte 0 -- -- 79
2021-01-11 12:00:00 -5.6 9 Norte 14 Norte 0 -- -- 82
2021-01-11 11:00:00 -6.7 8 Norte 17 Nordeste 0 -- -- 83
2021-01-11 10:00:00 -7.3 10 Nordeste 16 Norte 0 -- -- 89
2021-01-11 09:00:00 -7.5 10 Norte 18 Norte 0 -- -- 93
2021-01-11 08:00:00 -6.9 9 Norte 17 Norte 0 -- -- 96
2021-01-11 07:00:00 -8.4 5 Norte 12 Norte 0 -- -- 96
2021-01-11 06:00:00 -6.5 6 Norte 15 Norte 0 -- -- 95
2021-01-11 05:00:00 -5.7 9 Norte 17 Norte 0 -- -- 99
2021-01-11 04:00:00 -5.7 11 Norte 16 Norte 0 -- -- 99
2021-01-11 03:00:00 -5.6 9 Norte 15 Nordeste 0 -- -- 98
2021-01-11 02:00:00 -5.3 10 Norte 15 Norte 0 -- -- 99
2021-01-11 01:00:00 -5.1 11 Norte 17 Noroeste 0 -- -- 99
2021-01-11 00:00:00 -5.2 12 Norte 22 Norte 0 -- -- 99
2021-01-10 23:00:00 -4.8 13 Norte 22 Norte 0 -- -- 97
2021-01-10 22:00:00 -5 10 Norte 17 Norte 0 -- -- 97
2021-01-10 21:00:00 -4.6 10 Norte 15 Norte 0 -- -- 97
2021-01-10 20:00:00 -4.6 10 Norte 20 Norte 0 -- -- 97
2021-01-10 19:00:00 -4.1 13 Norte 19 Norte 0 -- -- 97
2021-01-10 18:00:00 -3.8 10 Norte 20 Norte 0 -- -- 98
2021-01-10 17:00:00 -3.6 15 Norte 23 Norte 0 -- -- 96
2021-01-10 16:00:00 -3.1 14 Norte 22 Norte 0 -- -- 95
2021-01-10 15:00:00 -2.3 13 Norte 20 Norte 0 -- -- 91
2021-01-10 14:00:00 -1.3 9 Norte 18 Norte 0 -- -- 87
2021-01-10 13:00:00 -1.6 12 Norte 17 Norte 0 -- -- 88
2021-01-10 12:00:00 -2.4 11 Norte 19 Norte 0 -- -- 93
2021-01-10 11:00:00 -3.2 12 Norte 19 Norte 0 -- -- 96
2021-01-10 10:00:00 -3.7 9 Norte 14 Norte 0 -- -- 97
2021-01-10 09:00:00 -4.2 6 Norte 13 Norte 0 -- -- 99
2021-01-10 08:00:00 -4.7 3 Nordeste 8 Nordeste 0 -- -- 99
2021-01-10 07:00:00 -4.2 3 Nordeste 6 Norte 0 -- -- 100
2021-01-10 06:00:00 -4.4 5 Nordeste 8 Este 0 -- -- 100
2021-01-10 05:00:00 -4.4 4 Nordeste 8 Norte 0 -- -- 100
2021-01-10 04:00:00 -4.9 5 Norte 8 Norte 0 -- -- 99
2021-01-10 03:00:00 -4.5 2 Nordeste 6 Norte 0 -- -- 99
2021-01-10 02:00:00 -4.6 3 Norte 7 Norte 0 -- -- 100
2021-01-10 01:00:00 -4.9 4 Norte 7 Norte 0 -- -- 98
2021-01-10 00:00:00 -4.2 6 Este 9 Este 0 -- -- 97
2021-01-09 23:00:00 -3.4 4 Sudeste 9 Este 0 -- -- 98
2021-01-09 22:00:00 -2.5 2 Norte 5 Sudeste 0.4 -- -- 98
2021-01-09 21:00:00 -2.6 2 Sur 6 Este 0.2 -- -- 98
2021-01-09 20:00:00 -2.5 4 Sudoeste 20 Sudoeste 0.2 -- -- 97
2021-01-09 19:00:00 -1.9 6 Sur 16 Sur 0.2 -- -- 98
2021-01-09 18:00:00 -1.7 10 Sur 15 Sur 0.2 -- -- 97
2021-01-09 17:00:00 -1.3 7 Sur 15 Sur 0.4 -- -- 96
2021-01-09 16:00:00 -0.9 13 Sur 19 Sur 1 -- -- 95
2021-01-09 15:00:00 -0.3 12 Sur 17 Sur 0.2 -- -- 93
2021-01-09 14:00:00 -0.2 9 Sur 17 Sur 0 -- -- 91
2021-01-09 13:00:00 0.1 6 Oeste 17 Sur 0 -- -- 87
2021-01-09 12:00:00 -1.1 0 Calma 9 Sudoeste 0.2 -- -- 86
2021-01-09 11:00:00 -2.7 0 Calma 4 Norte 0.8 -- -- 91
2021-01-09 10:00:00 -4.4 3 Noroeste 8 Oeste 1.2 -- -- 95
2021-01-09 09:00:00 -5.2 4 Norte 13 Noroeste 0 -- -- 95
2021-01-09 08:00:00 -5.3 4 Norte 12 Norte 0.4 -- -- 97
2021-01-09 07:00:00 -5.7 5 Norte 15 Norte 0.6 -- -- 97
2021-01-09 06:00:00 -5.9 12 Norte 20 Norte 0.6 -- -- 96
2021-01-09 05:00:00 -5.9 12 Norte 24 Norte 0.6 -- -- 95
2021-01-09 04:00:00 -5.7 17 Nordeste 22 Norte 1.4 -- -- 95
2021-01-09 03:00:00 -3.8 2 Oeste 4 Sur 1.4 -- -- 97
2021-01-09 02:00:00 -3.7 3 Nordeste 8 Sudeste 0.6 -- -- 97
2021-01-09 01:00:00 -3.8 3 Sur 6 Sur 0 -- -- 96
2021-01-09 00:00:00 -4 4 Nordeste 6 Nordeste 1.2 -- -- 97
2021-01-08 23:00:00 -3.9 0 Calma 9 Nordeste 1.4 -- -- 97
2021-01-08 22:00:00 -3.8 5 Norte 9 Este 1.8 -- -- 97
2021-01-08 21:00:00 -3.6 5 Este 8 Nordeste 1.4 -- -- 97
2021-01-08 20:00:00 -3.5 5 Este 8 Este 1 -- -- 96
2021-01-08 19:00:00 -3.3 4 Este 13 Sudeste 0.8 -- -- 96
2021-01-08 18:00:00 -2.8 8 Sudeste 14 Sudeste 0.8 -- -- 94
2021-01-08 17:00:00 -2.3 0 Calma 5 Oeste 1.4 -- -- 93
2021-01-08 16:00:00 -2 3 Noroeste 7 Noroeste 0.4 -- -- 92
2021-01-08 15:00:00 -1.8 6 Noroeste 11 Noroeste 0.2 -- -- 88
2021-01-08 14:00:00 -1.3 6 Norte 9 Norte 0.2 -- -- 86
2021-01-08 13:00:00 -1.6 6 Norte 8 Norte 0.4 -- -- 87
2021-01-08 12:00:00 -2.1 4 Norte 5 Norte 0.4 -- -- 90
2021-01-08 11:00:00 -3.3 2 Oeste 3 Norte 1 -- -- 92
2021-01-08 10:00:00 -3.9 0 Calma 3 Oeste 0.2 -- -- 95
2021-01-08 09:00:00 -4.8 2 Nordeste 4 Norte 0 -- -- 96
2021-01-08 08:00:00 -4.9 2 Nordeste 6 Nordeste 0 -- -- 96
2021-01-08 07:00:00 -4.9 3 Este 8 Nordeste 0 -- -- 96
2021-01-08 06:00:00 -4.9 8 Nordeste 12 Norte 0 -- -- 96
2021-01-08 05:00:00 -4.6 6 Norte 10 Norte 0 -- -- 96
2021-01-08 04:00:00 -4.8 8 Norte 13 Norte 0 -- -- 97
2021-01-08 03:00:00 -5.4 7 Norte 13 Norte 0 -- -- 97
2021-01-08 02:00:00 -5.2 7 Norte 14 Norte 0 -- -- 96
2021-01-08 01:00:00 -5 9 Norte 15 Norte 0 -- -- 96
2021-01-08 00:00:00 -4.8 7 Norte 13 Norte 0 -- -- 96
2021-01-07 23:00:00 -4.8 6 Norte 14 Noroeste 0 -- -- 96
2021-01-07 22:00:00 -4.7 7 Norte 12 Norte 0.2 -- -- 96
2021-01-07 21:00:00 -4.5 7 Norte 12 Norte 0.4 -- -- 96
2021-01-07 20:00:00 -4.4 8 Norte 17 Norte 0.4 -- -- 96
2021-01-07 19:00:00 -4 8 Norte 12 Norte 1 -- -- 96
2021-01-07 18:00:00 -3.9 8 Norte 14 Norte 0.4 -- -- 96
2021-01-07 17:00:00 -3.6 9 Norte 17 Norte 0.4 -- -- 95
2021-01-07 16:00:00 -3.5 10 Nordeste 18 Norte 0.6 -- -- 93
2021-01-07 15:00:00 -3 10 Norte 19 Norte 0.2 -- -- 91
2021-01-07 14:00:00 -2.4 12 Noroeste 19 Noroeste 0 -- -- 85
2021-01-07 13:00:00 -2.5 8 Noroeste 13 Noroeste 0 -- -- 84
2021-01-07 12:00:00 -2.7 4 Norte 13 Noroeste 0 -- -- 81
2021-01-07 11:00:00 -3.2 8 Noroeste 12 Noroeste 0 -- -- 84
2021-01-07 10:00:00 -3.6 5 Norte 9 Norte 0 -- -- 87
2021-01-07 09:00:00 -4.8 4 Norte 13 Norte 0 -- -- 92
2021-01-07 08:00:00 -4.9 5 Noroeste 9 Noroeste 0 -- -- 91
2021-01-07 07:00:00 -5.1 4 Noroeste 10 Norte 0 -- -- 90
2021-01-07 06:00:00 -4.9 5 Norte 9 Norte 0 -- -- 92
2021-01-07 05:00:00 -5 0 Calma 6 Norte 0 -- -- 92
2021-01-07 04:00:00 -5 4 Este 7 Nordeste 0 -- -- 92
2021-01-07 03:00:00 -5.2 0 Calma -- -- 0 -- -- 90
2021-01-07 02:00:00 -5 0 Calma -- -- 0 -- -- 91
2021-01-07 01:00:00 -5.9 0 Calma -- -- 0 -- -- 89
2021-01-07 00:00:00 -6.1 0 Calma -- -- 0 -- -- 89
2021-01-06 23:00:00 -6 0 Calma 4 Este 0 -- -- 87
2021-01-06 22:00:00 -6.4 0 Calma 5 Este 0 -- -- 87
2021-01-06 21:00:00 -6.5 2 Sudoeste 10 Este 0 -- -- 86
2021-01-06 20:00:00 -6 6 Este 10 Este 0 -- -- 82
2021-01-06 19:00:00 -4.5 4 Norte 7 Norte 0 -- -- 79
2021-01-06 18:00:00 -2.8 4 Norte 8 Noroeste 0 -- -- 75
2021-01-06 17:00:00 -0.4 5 Norte 10 Noroeste 0 -- -- 64
2021-01-06 16:00:00 0.5 7 Noroeste 12 Norte 0 -- -- 61
2021-01-06 15:00:00 0.4 7 Noroeste 14 Norte 0 -- -- 62
2021-01-06 14:00:00 -0.1 8 Norte 15 Nordeste 0 -- -- 66
2021-01-06 13:00:00 -0.4 5 Norte 15 Norte 0 -- -- 70
2021-01-06 12:00:00 -1.4 7 Norte 12 Norte 0 -- -- 75
2021-01-06 11:00:00 -3.3 0 Calma 4 Este 0 -- -- 81
2021-01-06 10:00:00 -7.3 3 Este 5 Este 0 -- -- 92
2021-01-06 09:00:00 -10 4 Nordeste 6 Nordeste 0 -- -- 94
2021-01-06 08:00:00 -11.4 4 Este 9 Este 0 -- -- 93
2021-01-06 07:00:00 -11.5 3 Este 8 Este 0 -- -- 92
2021-01-06 06:00:00 -10.9 4 Este 8 Este 0 -- -- 92
2021-01-06 05:00:00 -10 8 Este 11 Sudeste 0 -- -- 91
2021-01-06 04:00:00 -8.9 0 Calma 8 Este 0 -- -- 92
2021-01-06 03:00:00 -8.3 0 Calma 7 Este 0 -- -- 91
2021-01-06 02:00:00 -7.1 3 Este 8 Este 0 -- -- 93
2021-01-06 01:00:00 -7.7 4 Oeste 10 Este 0 -- -- 91
2021-01-06 00:00:00 -8.5 3 Este 10 Este 0 -- -- 92
2021-01-05 23:00:00 -8.9 3 Nordeste 10 Este 0 -- -- 92
2021-01-05 22:00:00 -8.8 8 Este 9 Este 0 -- -- 94
2021-01-05 21:00:00 -8.1 5 Este 10 Este 0 -- -- 90
2021-01-05 20:00:00 -6.5 6 Este 9 Este 0 -- -- 90
2021-01-05 19:00:00 -5.7 0 Calma 8 Norte 0 -- -- 88
2021-01-05 18:00:00 -4.1 6 Norte 16 Noroeste 0 -- -- 82
2021-01-05 17:00:00 -2.2 10 Noroeste 20 Oeste 0 -- -- 76
2021-01-05 16:00:00 -0.9 11 Noroeste 24 Noroeste 0 -- -- 70
2021-01-05 15:00:00 -0.9 14 Noroeste 26 Noroeste 0 -- -- 70
2021-01-05 14:00:00 -1 14 Noroeste 27 Noroeste 0 -- -- 70
2021-01-05 13:00:00 -1.7 10 Noroeste 28 Noroeste 0 -- -- 72
2021-01-05 12:00:00 -2.5 13 Noroeste 24 Oeste 0 -- -- 75
2021-01-05 11:00:00 -3.1 10 Noroeste 38 Noroeste 0 -- -- 77
2021-01-05 10:00:00 -4.1 16 Noroeste 36 Noroeste 0 -- -- 80
2021-01-05 09:00:00 -5.1 21 Noroeste 37 Noroeste 0 -- -- 83
2021-01-05 08:00:00 -5.7 22 Noroeste 35 Noroeste 0 -- -- 88
2021-01-05 07:00:00 -5.3 14 Noroeste 28 Nordeste 0 -- -- 87
2021-01-05 06:00:00 -5.2 18 Norte 30 Norte 0 -- -- 90
2021-01-05 05:00:00 -4.8 13 Norte 26 Noroeste 0 -- -- 89
2021-01-05 04:00:00 -4.5 12 Noroeste 22 Oeste 0 -- -- 88
2021-01-05 03:00:00 -4.5 11 Noroeste 21 Nordeste 0 -- -- 90
2021-01-05 02:00:00 -4.7 9 Norte 23 Noroeste 0 -- -- 88
2021-01-05 01:00:00 -4.5 6 Noroeste 16 Noroeste 0 -- -- 87
2021-01-05 00:00:00 -3.9 9 Noroeste 17 Noroeste 0 -- -- 86
2021-01-04 23:00:00 -4.3 2 Noroeste 10 Norte 0 -- -- 87
2021-01-04 22:00:00 -4.2 3 Noroeste 18 Norte 0 -- -- 85
2021-01-04 21:00:00 -4.1 3 Sur 23 Oeste 0 -- -- 88
2021-01-04 20:00:00 -3.7 2 Noroeste 9 Norte 0 -- -- 76
2021-01-04 19:00:00 -3.5 4 Este 12 Oeste 0 -- -- 72
2021-01-04 18:00:00 -2.4 6 Sudeste 14 Noroeste 0 -- -- 69
2021-01-04 17:00:00 -1.4 10 Noroeste 26 Oeste 0 -- -- 69
2021-01-04 16:00:00 -0.8 15 Oeste 39 Oeste 0 -- -- 66
2021-01-04 15:00:00 -0.9 22 Oeste 37 Oeste 0 -- -- 66
2021-01-04 14:00:00 -0.6 19 Oeste 34 Oeste 0 -- -- 65
2021-01-04 13:00:00 -1.3 14 Oeste 27 Noroeste 0 -- -- 70
2021-01-04 12:00:00 -2.3 4 Oeste 15 Norte 0 -- -- 75
2021-01-04 11:00:00 -3.2 9 Norte 23 Norte 0 -- -- 77
2021-01-04 10:00:00 -3.4 7 Norte 20 Sudoeste 0 -- -- 82
2021-01-04 09:00:00 -4.1 5 Este 15 Oeste 0 -- -- 91
2021-01-04 08:00:00 -4.3 7 Oeste 15 Oeste 0 -- -- 93
2021-01-04 07:00:00 -4.5 7 Sudoeste 16 Oeste 0 -- -- 90
2021-01-04 06:00:00 -4.6 2 Este 6 Este 0 -- -- 88
2021-01-04 05:00:00 -4.4 3 Oeste 7 Este 0 -- -- 87
2021-01-04 04:00:00 -3.6 4 Sudeste 10 Este 0 -- -- 87
2021-01-04 03:00:00 -4.2 3 Sur 15 Oeste 0 -- -- 85
2021-01-04 02:00:00 -4.4 5 Noroeste 21 Oeste 0 -- -- 84
2021-01-04 01:00:00 -4.7 3 Nordeste 21 Oeste 0 -- -- 84
2021-01-04 00:00:00 -3.6 14 Oeste 24 Oeste 0 -- -- 84
2021-01-03 23:00:00 -4.2 4 Nordeste 9 Este 0 -- -- 84
2021-01-03 22:00:00 -3.6 0 Calma 15 Oeste 0 -- -- 82
2021-01-03 21:00:00 -2.5 9 Oeste 16 Noroeste 0 -- -- 81
2021-01-03 20:00:00 -2.1 6 Oeste 14 Noroeste 0 -- -- 84
2021-01-03 19:00:00 -2.4 2 Este 11 Noroeste 0 -- -- 83
2021-01-03 18:00:00 -2.2 11 Noroeste 44 Oeste 0 -- -- 81
2021-01-03 17:00:00 -1.4 23 Oeste 51 Oeste 0 -- -- 77
2021-01-03 16:00:00 -0.2 34 Noroeste 53 Oeste 0 -- -- 70
2021-01-03 15:00:00 -0.6 34 Oeste 56 Oeste 0 -- -- 72
2021-01-03 14:00:00 -1.2 35 Noroeste 54 Oeste 0 -- -- 77
2021-01-03 13:00:00 -2.3 37 Noroeste 52 Oeste 0 -- -- 80
2021-01-03 12:00:00 -3.3 21 Noroeste 48 Noroeste 0 -- -- 85
2021-01-03 11:00:00 -4.2 24 Noroeste 46 Noroeste 0 -- -- 87
2021-01-03 10:00:00 -5 24 Noroeste 49 Noroeste 0 -- -- 90
2021-01-03 09:00:00 -5.6 18 Norte 33 Noroeste 0 -- -- 94
2021-01-03 08:00:00 -5.4 19 Norte 30 Noroeste 0 -- -- 90
2021-01-03 07:00:00 -6 18 Noroeste 33 Noroeste 0 -- -- 88
2021-01-03 06:00:00 -6.8 18 Noroeste 30 Norte 0 -- -- 82
2021-01-03 05:00:00 -6.8 20 Noroeste 35 Noroeste 0 -- -- 83
2021-01-03 04:00:00 -7.3 10 Noroeste 20 Noroeste 0 -- -- 85
2021-01-03 03:00:00 -6.8 9 Noroeste 41 Noroeste 0 -- -- 82
2021-01-03 02:00:00 -5.7 26 Noroeste 40 Noroeste 0 -- -- 82
2021-01-03 01:00:00 -5.2 18 Noroeste 46 Noroeste 0 -- -- 82
2021-01-03 00:00:00 -4.9 27 Noroeste 44 Noroeste 0 -- -- 84
2021-01-02 23:00:00 -4.8 24 Noroeste 44 Noroeste 0 -- -- 86
2021-01-02 22:00:00 -4.8 30 Noroeste 48 Noroeste 0 -- -- 83
2021-01-02 21:00:00 -5 35 Noroeste 57 Noroeste 0 -- -- 82
2021-01-02 20:00:00 -5.1 29 Noroeste 44 Noroeste 0 -- -- 83
2021-01-02 19:00:00 -5.1 27 Noroeste 49 Noroeste 0 -- -- 78
2021-01-02 18:00:00 -4.7 31 Noroeste 51 Norte 0 -- -- 74
2021-01-02 17:00:00 -3.5 33 Noroeste 53 Noroeste 0 -- -- 69
2021-01-02 16:00:00 -3.4 35 Noroeste 56 Noroeste 0 -- -- 74
2021-01-02 15:00:00 -3.4 33 Noroeste 57 Noroeste 0 -- -- 79
2021-01-02 14:00:00 -3.6 32 Noroeste 51 Noroeste 0 -- -- 92